TimeEST,TemperatureF,Dew PointF,Humidity,Sea Level PressureIn,VisibilityMPH,Wind Direction,Wind SpeedMPH,Gust SpeedMPH,PrecipitationIn,Events,Conditions,WindDirDegrees,DateUTC
12:56 AM,6.1,-9.0,50,30.39,10.0,West,6.9,-,N/A,,Clear,270,2014-01-08 05:56:00
1:56 AM,6.1,-9.0,50,30.42,10.0,West,8.1,-,N/A,,Clear,260,2014-01-08 06:56:00
2:56 AM,6.1,-8.0,53,30.44,10.0,West,9.2,18.4,N/A,,Clear,270,2014-01-08 07:56:00
3:56 AM,6.1,-8.0,53,30.44,10.0,West,11.5,-,N/A,,Clear,280,2014-01-08 08:56:00
4:56 AM,6.1,-7.1,55,30.46,10.0,West,8.1,-,N/A,,Clear,270,2014-01-08 09:56:00
5:56 AM,6.1,-7.1,55,30.44,10.0,West,8.1,-,N/A,,Clear,280,2014-01-08 10:56:00
6:56 AM,6.1,-6.0,58,30.48,10.0,West,6.9,-,N/A,,Clear,270,2014-01-08 11:56:00
7:56 AM,7.0,-5.1,58,30.51,10.0,West,6.9,-,N/A,,Clear,260,2014-01-08 12:56:00
8:56 AM,9.0,-4.0,56,30.53,10.0,WNW,10.4,-,N/A,,Clear,290,2014-01-08 13:56:00
9:56 AM,10.9,-4.0,51,30.55,10.0,West,11.5,-,N/A,,Clear,280,2014-01-08 14:56:00
10:56 AM,12.9,-4.0,47,30.53,10.0,WNW,8.1,-,N/A,,Clear,290,2014-01-08 15:56:00
11:56 AM,16.0,-2.0,45,30.49,10.0,Variable,5.8,-,N/A,,Clear,0,2014-01-08 16:56:00
12:56 PM,17.1,-2.0,43,30.47,10.0,WNW,10.4,-,N/A,,Clear,290,2014-01-08 17:56:00
1:56 PM,18.0,-2.0,41,30.46,10.0,West,10.4,16.1,N/A,,Clear,260,2014-01-08 18:56:00
2:56 PM,19.9,-2.0,38,30.47,10.0,West,11.5,-,N/A,,Partly Cloudy,280,2014-01-08 19:56:00
3:56 PM,19.0,-0.9,42,30.47,10.0,SW,4.6,-,N/A,,Partly Cloudy,230,2014-01-08 20:56:00
4:56 PM,18.0,-0.9,44,30.48,10.0,WSW,3.5,-,N/A,,Clear,240,2014-01-08 21:56:00
5:56 PM,18.0,-0.9,44,30.48,10.0,WSW,5.8,-,N/A,,Clear,250,2014-01-08 22:56:00
6:56 PM,18.0,-0.0,45,30.51,10.0,WSW,4.6,-,N/A,,Clear,250,2014-01-08 23:56:00
7:56 PM,18.0,-0.0,45,30.52,10.0,West,6.9,-,N/A,,Clear,260,2014-01-09 00:56:00
8:56 PM,17.1,-0.0,47,30.52,10.0,West,4.6,-,N/A,,Mostly Cloudy,270,2014-01-09 01:56:00
9:56 PM,18.0,1.0,48,30.52,10.0,West,4.6,-,N/A,,Overcast,270,2014-01-09 02:56:00
10:56 PM,18.0,1.0,48,30.52,10.0,NW,3.5,-,N/A,,Mostly Cloudy,310,2014-01-09 03:56:00
11:56 PM,19.0,1.9,47,30.51,10.0,West,6.9,-,N/A,,Mostly Cloudy,270,2014-01-09 04:56:00